Location: Unspecified
(0.0000°N, 0.0000°E)
Time: 07:05:35
(UTC+00:00)

Vanguard 2 Rocket - Pass Details

Date: 06 October 2023
Orbit: 552 x 3312 km, 32.9° (Epoch: 06 December)

Event Time Altitude Azimuth Distance (km) Brightness Sun altitude
Rises 14:39:49 0° 314° (NW) 7,188 11.8 46.8°
Reaches altitude 10° 14:44:59 10° 320° (NW) 6,250 11.6 45.6°
Maximum altitude 15:04:10 49° 30° (NNE) 3,532 10.1 40.8°
Drops below altitude 10° 15:18:11 10° 101° (E) 4,749 10.2 37.3°
Sets 15:21:26 0° 106° (ESE) 5,427 10.4 36.5°
